Theta_e
291 290 290 289 289 289 288 288 288 288 288 288 288 289 288 288 288 289 291 291 290 290 289 290 291 291 292
290 289 289 289 289 289 289 289 289 288 288 290 289 289 288 288 288 290 290 289 288 286 286 288 290 290 291
289 289 289 288 289 289 289 289 288 288 288 288 288 290 290 290 290 290 290 289 289 289 289 289 288 289 290
289 289 288 288 289 289 289 288 288 288 288 288 288 288 287 287 287 287 288 289 289 288 288 288 288 288 289
288 288 288 288 288 288 288 288 288 288 288 288 288 288 287 287 287 287 288 289 289 288 287 288 288 288 288
287 287 287 287 288 288 289 288 288 287 287 287 287 287 287 286 286 288 288 288 288 287 287 287 287 287 287
287 287 287 287 288 288 287 287 287 286 286 287 286 286 286 285 286 286 287 288 287 287 287 287 287 287 287
287 287 286 286 286 287 287 287 285 285 286 286 285 285 285 285 285 286 286 287 287 287 287 287 286 286 286
287 287 288 286 285 287 286 286 285 285 284 285 284 285 284 285 285 285 285 285 285 286 286 285 285 285 285
286 286 286 284 285 286 286 286 285 284 284 283 284 284 284 284 285 284 285 285 285 284 284 284 284 284 285
284 285 284 285 285 285 285 284 284 283 283 283 283 283 284 284 284 284 284 284 284 284 284 283 284 284 284
284 284 284 284 284 284 284 283 283 282 283 283 283 284 284 284 283 283 284 284 284 284 283 283 283 284 284
284 284 283 283 283 283 283 283 282 282 282 283 282 283 283 283 283 282 283 284 284 283 283 283 283 284 284
283 283 282 282 282 281 281 281 281 282 282 282 282 282 282 283 282 283 283 283 283 283 283 283 283 283 284
283 282 282 281 281 280 281 281 281 281 281 281 281 282 282 283 283 283 283 283 283 283 283 283 283 283 284
282 281 281 280 280 281 281 281 281 281 280 280 281 281 281 282 282 283 283 282 283 283 283 282 283 284 284
281 281 281 280 280 280 280 281 281 281 280 280 280 281 281 281 281 281 282 282 282 283 282 282 282 283 284
Wind_Speed
12 16 17 18 17 16 15 16 15 14 14 16 18 18 20 20 20 19 20 20 20 19 19 19 21 23 24
11 14 15 15 16 16 16 13 13 15 16 15 17 17 17 18 19 19 21 22 23 23 21 22 23 25 25
13 13 13 15 16 15 14 16 17 16 17 16 14 16 18 20 20 21 21 21 20 24 24 25 26 25 24
12 13 15 14 13 15 19 19 21 19 15 15 17 17 21 21 21 23 19 20 24 23 24 24 23 25 26
12 13 14 13 15 17 20 20 19 18 18 19 22 22 24 21 21 21 20 23 24 25 21 23 24 25 27
13 14 14 15 14 15 19 20 23 21 23 26 22 22 21 22 25 23 23 22 25 24 22 25 26 28 29
12 12 14 14 18 20 20 21 24 23 25 27 24 24 25 26 25 24 23 24 23 21 25 28 30 30 31
12 13 14 14 16 18 19 22 23 20 21 27 26 25 24 25 23 21 19 18 21 25 26 30 31 31 30
11 11 12 14 15 17 20 20 22 23 24 23 23 28 29 26 19 17 22 25 25 24 27 30 30 29 30
13 14 13 13 12 15 20 22 24 25 23 23 25 24 23 24 18 26 26 25 26 27 26 29 29 28 30
15 14 14 13 17 19 20 21 24 23 23 19 25 24 25 31 36 34 29 29 27 27 26 30 30 26 31
14 15 17 18 20 22 22 22 20 21 20 17 23 24 27 31 35 33 33 31 29 26 30 29 31 30 29
15 18 20 19 19 19 18 19 21 16 16 17 22 25 21 25 31 33 33 31 21 29 30 33 35 34 36
14 14 16 16 17 17 20 21 20 21 18 20 22 21 23 23 27 31 29 27 29 31 35 36 38 35 35
14 17 18 18 18 18 17 18 19 24 24 20 18 20 21 23 27 25 25 30 33 35 35 38 39 36 37
18 18 18 19 17 16 18 19 20 22 25 26 25 27 25 23 23 24 25 31 35 31 31 37 42 38 35
16 18 19 18 15 17 19 18 18 23 23 21 22 23 26 28 30 26 31 31 32 31 33 36 39 40 36
Wind_Direction
259 277 295 304 310 312 314 316 316 315 313 310 313 315 313 315 314 315 320 320 318 316 316 315 314 315 313
281 293 299 307 316 320 322 323 324 322 316 315 315 319 320 319 315 319 318 318 314 312 311 313 313 313 313
301 304 307 311 311 313 320 318 318 319 319 311 322 318 315 321 320 318 313 315 318 318 318 315 311 310 310
293 299 301 307 311 319 314 315 320 320 319 314 307 305 313 318 312 312 312 311 317 315 310 309 309 306 305
286 289 300 309 312 309 306 309 311 314 315 312 312 315 322 316 316 314 313 308 309 307 313 314 308 305 301
287 294 302 301 302 303 302 308 311 320 314 309 313 311 313 313 318 311 305 304 306 303 316 320 316 310 304
293 297 297 299 293 294 296 297 299 307 309 309 312 310 314 312 307 303 301 298 302 303 313 318 316 311 304
295 300 295 290 291 295 298 299 297 301 303 301 311 309 310 308 310 306 303 303 301 301 309 312 312 311 307
296 298 294 296 297 297 299 302 306 312 316 317 321 312 313 315 323 321 315 306 307 308 309 315 315 311 305
279 283 291 295 293 286 290 298 304 314 318 315 311 318 319 324 313 318 320 319 316 315 318 323 319 316 313
281 289 293 286 284 288 292 296 297 299 311 311 308 317 310 312 311 313 315 319 318 317 323 325 322 314 312
285 285 284 284 284 288 292 296 300 305 314 315 305 307 303 301 304 312 314 318 320 325 330 324 320 322 321
287 284 285 281 287 294 296 301 303 310 308 310 308 306 300 303 306 309 315 321 326 330 329 329 326 327 326
288 296 305 305 307 309 310 312 315 312 310 309 314 322 314 310 309 311 323 312 326 328 330 328 326 326 326
295 295 296 301 304 308 312 310 308 318 321 318 314 308 305 309 311 319 326 322 327 327 325 324 324 328 330
290 294 298 299 306 308 305 308 309 311 319 321 320 320 315 312 320 316 318 322 324 323 327 329 324 326 330
294 294 290 294 305 302 302 309 310 311 318 327 331 331 329 321 320 313 316 326 325 324 330 330 324 325 330